Tracking 35274 objects as of 10-Sep-2026
HD Live streaming from Space Station
objects crossing your sky now

KUIPER-00511

Track KUIPER-00511 now!
10-day predictions
KUIPER-00511 is classified as:


NORAD ID: 68888
Int'l Code: 2026-095AA
Launch date: April 28, 2026
Source: United States (US)
Launch site: AIR FORCE EASTERN TEST RANGE (AFETR)
Your satellite tracking list
Your tracking list is empty




NASA's NSSDC Master Catalog

Two Line Element Set (TLE):
1 68888U 26095AA  26252.26431366  .00000839  00000-0  13911-3 0  9996
2 68888  51.8959 216.4778 0000986  23.9059 336.1948 14.79928613 20379
Source of the keplerian elements: AFSPC